NIMBUS 2 DEB, 59974

Orbit data source: Space-Track

NIMBUS 2 DEB, 59974 is space debris in SSO originally from a launch on Sun, 15 May 1966 UTC launched from the Air Force Western Test Range (AFWTR). Debris objects in space refer to the collection of defunct objects orbiting the Earth. Examples of debris include non-operational satellites, rocket bodies, and fragments generated from explosions, collisions, or faulty payload assembly.

Loading next visibility...
Identifier
59974, 1966-040CD
Orbit
SSO
Country
Flag of USUS
Related business
Manufacturer
Unknown
Mission
Spacecraft
Bus & Motor
Unknown
Mass
Unknown
Launch date (UTC)
1966-05-15 (59 years ago)
Launch vehicle
Unknown
Launch site
Air Force Western Test Range (AFWTR)
Object type
Payload
Rocket body
Debris
Shape & HBR
Unknown shape, 0.1 m
Radar Cross Section
Small (<0.1 m²)

Expand to show TLE details & history
Last TLE update: 1 month ago

TLE from 1 month ago
0 NIMBUS 2 DEB
1 59974U 66040CD  25259.71087293  .00001901  00000-0  34017-2 0  9998
2 59974 100.1308  54.9542 0044784 122.9590 237.5857 13.42828255421063
Epoch: 2025-09-16T17:03Z
TLE epoch observation values (Epoch: 2025-09-16T17:03:39.421Z)
Latitude
0.00005°
Longitude
163.14268°
Altitude
1,119.582 km
Speed
7.284 km/s
True Right ascension
03h 39m 49s
True Declination
0° 00' 00"
Sunlit
Object was in daylight at epoch
Visualization orbit readout
Latitude
Unknown
Longitude
Unknown
Altitude
Unknown
Speed
Unknown
Apparent Right ascension
Unknown
Apparent Declination
Unknown
Sunlit
N/A
Visualization observer readout
Local Sidereal Time
02:54:28
Azimuth
Unknown
Elevation
Unknown
Doppler factor
Unknown
Orbital elements
Apogee altitude
1,129.568 km
Perigee altitude
1,062.623 km
Semi-major axis
7,474.233 km
Eccentricity
0.00448
Inclination
100.1308°
RAAN
54.9542°
Arg. of periapsis
122.959°
True anomaly
237.15377°
Mean anomaly
237.5857°
Eccentric anomaly
237.36961°
Mean motion
3.35887 °/min
Orbital period
107.18 mins
BSTAR
0.0034017
Loading maneuver chart data...
Computing Atmospheric mass density...
Loading historical data...
Loading historical data...
Loading historical data...
Loading historical data...
Loading historical data...
Loading historical data...
Loading historical data...

Documentation

Showing up to 5 results
|